[[{"header":{"parameterUnit":"m.s-1","parameterCategory":1,"la1":30.2991,"la2":30.254,"lo1":-89.0895,"lo2":-89.0444,"dy":0.0017,"dx":0.0017,"nx":28,"ny":28,"refTime":"2025-04-19T09:00:00:Z","depth":0,"parameterNumber":2,"parameterNumberName":"U-component_of_WINDS"},"data":[0,0,0,0,0,0,0,0,0,0,0,0,0,0,0,0,0,0,0,0,0,0,0,0,0,0,0,0,0,0,0,0,0,0,0,0,0,0,0,0,0,0,0,0,0,0,0,0,0,0,0,0,0,0,0,0,0,0,-4.3115,-4.3115,0,-4.3189,-4.319,-4.3191,-4.3163,-4.3161,-4.3159,-4.3158,-4.3235,-4.3239,-4.3242,0,0,0,0,0,0,0,0,0,0,0,0,0,-4.2948,-4.2952,-4.3114,-4.3115,-4.3116,-4.3189,-4.319,-4.3191,-4.3163,-4.3161,-4.3159,-4.3157,-4.3234,-4.3238,-4.3243,0,0,0,0,0,0,0,0,0,0,0,0,0,-4.3022,-4.2953,-4.3114,-4.3111,-4.3111,-4.3189,-4.319,-4.3191,-4.3163,-4.3161,-4.3158,-4.3156,-4.3232,-4.3238,-4.3243,-4.3329,0,0,-4.326,-4.3262,0,0,0,0,0,0,0,0,-4.3017,-4.3028,-4.3111,-4.3111,-4.3112,-4.3164,-4.316,-4.3237,-4.3164,-4.3144,-4.3157,-4.3155,-4.3214,-4.322,-4.324,-4.3332,-4.3336,-4.3261,-4.3264,-4.3266,-4.3268,0,0,0,0,0,0,0,-4.3012,-4.3024,-4.3144,-4.3112,-4.3113,-4.3106,-4.3114,-4.3174,-4.3192,-4.3145,-4.3143,-4.3153,-4.3213,-4.3235,-4.3242,-4.3337,-4.326,-4.3265,-4.3269,-4.3271,-4.3502,-4.3505,0,0,0,0,0,0,-4.3007,-4.302,-4.3142,-4.3146,-4.3057,-4.3111,-4.312,-4.315,-4.3191,-4.3195,-4.3155,-4.3151,-4.3227,-4.3235,-4.3244,-4.3346,-4.3266,-4.3271,-4.3275,-4.3499,-4.3503,-4.3506,0,0,0,0,0,0,-4.3003,-4.3018,-4.3139,-4.3083,-4.3098,-4.3117,-4.3151,-4.3153,-4.3174,-4.3199,-4.3202,-4.3173,-4.3225,-4.3237,-4.3308,-4.3348,-4.3274,-4.3279,-4.3496,-4.35,-4.3504,-4.3551,0,0,0,0,0,0,-4.2999,-4.3017,-4.3049,-4.3084,-4.3101,-4.3201,-4.3154,-4.3156,-4.3183,-4.3179,-4.3217,-4.3221,-4.3224,-4.33,-4.3313,-4.3355,-4.3283,-4.3492,-4.3498,-4.3503,-4.3546,-4.3556,-4.3565,0,0,0,0,0,-4.2993,-4.306,-4.3051,-4.3066,-4.3142,-4.3203,-4.3213,-4.3215,-4.3187,-4.322,-4.3235,-4.3219,-4.3342,-4.3307,-4.3322,-4.3366,-4.349,-4.3496,-4.3502,-4.3541,-4.3554,-4.3565,0,0,0,0,0,0,-4.3031,-4.3065,-4.3055,-4.3135,-4.3166,-4.3198,-4.3239,-4.3229,-4.3269,-4.3263,-4.3265,-4.3273,-4.3346,-4.3364,-4.3324,-4.345,-4.3412,-4.3421,-4.3436,-4.3449,-4.3458,-4.3452,-4.3288,0,0,0,0,0,-4.3048,-4.3095,-4.3122,-4.319,-4.3206,-4.322,-4.3247,-4.3246,-4.3279,-4.3292,-4.3313,-4.3345,-4.3391,-4.3421,-4.3464,-4.3549,-4.3556,-4.3586,-4.3596,-4.3604,-4.3612,-4.3656,-4.367,-4.3527,-4.3527,-4.3526,0,0,-4.3085,-4.3109,-4.3139,-4.3198,-4.3222,-4.327,-4.3232,-4.3284,-4.332,-4.33,-4.3367,-4.3384,-4.3421,-4.3498,-4.3534,-4.3515,-4.3653,-4.3612,-4.3618,-4.3622,-4.3664,-4.3678,-4.369,-4.3531,-4.353,-4.3529,0,0,-4.3176,-4.32,-4.3258,-4.3283,-4.332,-4.3329,-4.3343,-4.3376,-4.3386,-4.3454,-4.344,-4.3483,-4.3562,-4.3588,-4.3612,-4.3713,-4.3699,-4.3727,-4.3777,-4.3821,-4.3832,-4.3842,-4.3877,-4.389,-4.3735,-4.3736,-4.3736,0,-4.3217,-4.3289,-4.329,-4.3344,-4.337,-4.3354,-4.3413,-4.3437,-4.3487,-4.3505,-4.3484,-4.3582,-4.3606,-4.3688,-4.3713,-4.3733,-4.3749,-4.3722,-4.3831,-4.3841,-4.385,-4.3883,-4.3896,-4.3739,-4.3738,-4.3738,-4.3738,0,-4.3337,-4.3387,-4.343,-4.3477,-4.3509,-4.3565,-4.3575,-4.3607,-4.3603,-4.3615,-4.3684,-4.3712,-4.376,-4.378,-4.3777,-4.3863,-4.385,-4.383,-4.379,-4.3867,-4.3898,-4.3911,-4.3743,-4.3742,-4.3741,-4.374,0,0,-4.3454,-4.35,-4.3516,-4.3537,-4.3576,-4.3615,-4.367,-4.3717,-4.3744,-4.3779,-4.3825,-4.3892,-4.3874,-4.3901,-4.3901,-4.394,-4.4017,-4.3915,-4.3916,-4.3931,-4.4111,-4.4125,-4.4139,-4.4008,-4.4011,-4.4013,-4.4107,0,-4.3547,-4.3644,-4.3646,-4.3735,-4.3781,-4.3766,-4.3814,-4.3844,-4.3856,-4.3897,-4.391,-4.3957,-4.393,-4.3946,-4.3983,-4.3999,-4.4052,-4.3993,-4.4051,-4.4053,-4.4041,-4.4156,-4.4171,-4.4259,-4.412,-4.4122,-4.4123,0,-4.3669,-4.3706,-4.3799,-4.3831,-4.385,-4.3894,-4.3936,-4.3976,-4.4009,-4.4015,-4.4045,-4.4039,-4.4096,-4.4056,-4.4134,-4.4094,-4.4118,-4.4129,-4.4133,-4.4137,-4.4092,-4.4162,-4.4287,-4.43,-4.4143,-4.4141,-4.414,0,-4.3743,-4.3817,-4.3881,-4.39,-4.3939,-4.397,-4.3987,-4.4018,-4.4046,-4.4083,-4.4101,-4.4145,-4.4169,-4.4204,-4.4211,-4.4181,-4.4289,-4.4249,-4.4295,-4.4295,-4.4317,-4.4315,-4.4446,-4.4335,-4.4335,-4.4335,-4.4334,0,-4.3846,-4.3903,-4.3915,-4.3955,-4.4018,-4.4021,-4.4084,-4.4099,-4.4127,-4.4169,-4.416,-4.42,-4.4207,-4.4249,-4.4255,-4.4318,-4.433,-4.4336,-4.4336,-4.4336,-4.4335,-4.4351,-4.4344,-4.4338,-4.4337,-4.4337,-4.4336,0,-4.3939,-4.3949,-4.4019,-4.405,-4.4059,-4.4104,-4.4131,-4.4169,-4.418,-4.4234,-4.4247,-4.4264,-4.4313,-4.4323,-4.4382,-4.4386,-4.446,-4.4456,-4.4449,-4.4448,-4.4492,-4.4487,-4.4636,-4.4656,-4.4534,-4.4535,-4.4536,0,-4.4003,-4.4047,-4.4082,-4.4109,-4.4128,-4.4173,-4.4201,-4.4205,-4.4235,-4.4276,-4.4309,-4.4356,-4.4395,-4.4473,-4.4492,-4.4536,-4.4531,-4.4581,-4.4538,-4.4536,-4.4531,-4.4527,-4.4531,-4.4588,-4.459,-4.4591,-4.4592,0,-4.4116,-4.4119,-4.4159,-4.4201,-4.4235,-4.4268,-4.43,-4.4323,-4.4332,-4.4366,-4.4415,-4.4445,-4.4504,-4.4551,-4.4596,-4.4614,-4.4604,-4.4605,-4.4618,-4.4617,-4.461,-4.4613,-4.4469,-4.4601,-4.46,-4.46,-4.4599,-4.4599,-4.4196,-4.4233,-4.4264,-4.4309,-4.4333,-4.4363,-4.44,-4.4415,-4.4456,-4.4504,-4.4504,-4.4558,-4.459,-4.4648,-4.4669,-4.4712,-4.4696,-4.4715,-4.4719,-4.4723,-4.4727,-4.4605,-4.472,-4.472,-4.4719,-4.4719,-4.4719,0,-4.4307,-4.4326,-4.4367,-4.4411,-4.4447,-4.4434,-4.4469,-4.4499,-4.4546,-4.4576,-4.4614,-4.467,-4.4716,-4.4738,-4.4783,-4.4812,-4.4809,-4.4824,-4.4821,-4.4825,-4.4739,-4.4722,-4.4826,-4.4826,-4.4826,-4.4826,-4.4826,-4.4826,-4.4369,-4.4431,-4.4438,-4.4512,-4.453,-4.4582,-4.4602,-4.463,-4.4654,-4.4717,-4.4754,-4.4768,-4.4795,-4.4842,-4.4883,-4.4888,-4.4905,-4.4922,-4.4925,-4.4843,-4.4832,-4.4821,-4.4806,-4.4925,-4.4926,-4.5008,-4.5009,-4.5009]},{"header":{"parameterUnit":"m.s-1","parameterCategory":1,"la1":30.2991,"la2":30.254,"lo1":-89.0895,"lo2":-89.0444,"dy":0.0017,"dx":0.0017,"nx":28,"ny":28,"refTime":"2025-04-19T09:00:00:Z","depth":0,"parameterNumber":3,"parameterNumberName":"V-component_of_WINDS"},"data":[0,0,0,0,0,0,0,0,0,0,0,0,0,0,0,0,0,0,0,0,0,0,0,0,0,0,0,0,0,0,0,0,0,0,0,0,0,0,0,0,0,0,0,0,0,0,0,0,0,0,0,0,0,0,0,0,0,0,3.6623,3.6625,0,3.6781,3.6783,3.6784,3.6884,3.6885,3.6885,3.6886,3.7041,3.7044,3.7048,0,0,0,0,0,0,0,0,0,0,0,0,0,3.6402,3.6406,3.6623,3.6625,3.6627,3.678,3.6783,3.6785,3.6884,3.6885,3.6885,3.6886,3.704,3.7044,3.7048,0,0,0,0,0,0,0,0,0,0,0,0,0,3.6523,3.6407,3.6623,3.6695,3.6703,3.678,3.6783,3.6785,3.6884,3.6885,3.6886,3.6887,3.7038,3.7044,3.7049,3.7064,0,0,3.7065,3.7068,0,0,0,0,0,0,0,0,3.6516,3.6531,3.6683,3.669,3.67,3.6814,3.6762,3.6879,3.6884,3.6815,3.6886,3.6887,3.6964,3.6976,3.7003,3.7071,3.7078,3.7066,3.7069,3.7071,3.7073,0,0,0,0,0,0,0,3.6507,3.6524,3.6685,3.6685,3.6695,3.6718,3.6736,3.6784,3.6882,3.6821,3.6829,3.6846,3.6969,3.6998,3.7008,3.708,3.7066,3.707,3.7074,3.7076,3.7169,3.7168,0,0,0,0,0,0,3.6488,3.6517,3.668,3.669,3.6608,3.6721,3.6741,3.6776,3.6882,3.69,3.6845,3.685,3.6988,3.7001,3.7013,3.704,3.7071,3.7076,3.7079,3.717,3.7169,3.7168,0,0,0,0,0,0,3.6483,3.6502,3.6674,3.6606,3.6629,3.6724,3.6762,3.6779,3.6808,3.6901,3.6918,3.6857,3.6989,3.7006,3.7051,3.7046,3.7079,3.7084,3.7171,3.7169,3.7168,3.7091,0,0,0,0,0,0,3.6476,3.6499,3.6508,3.6605,3.6633,3.6711,3.6762,3.6781,3.6818,3.6826,3.6917,3.6932,3.6991,3.7043,3.7057,3.7054,3.7088,3.7172,3.717,3.7169,3.7094,3.7087,3.7081,0,0,0,0,0,3.6468,3.6478,3.6508,3.6527,3.6645,3.6711,3.6726,3.6796,3.6817,3.6825,3.6885,3.6929,3.7044,3.7047,3.7063,3.7062,3.7172,3.7171,3.7169,3.7097,3.7089,3.7081,0,0,0,0,0,0,3.6376,3.6492,3.6526,3.6568,3.6629,3.6727,3.674,3.6784,3.6838,3.6843,3.6925,3.6945,3.6982,3.7026,3.7027,3.7082,3.7113,3.7115,3.7053,3.7046,3.7039,3.7029,3.7092,0,0,0,0,0,3.6361,3.6406,3.6504,3.6532,3.6561,3.6645,3.6676,3.6724,3.6789,3.6815,3.6878,3.6938,3.6988,3.7019,3.7069,3.71,3.7121,3.7107,3.7101,3.7095,3.7096,3.7116,3.7111,3.7163,3.7163,3.7163,0,0,3.6329,3.6398,3.6422,3.6515,3.6568,3.6611,3.6666,3.6709,3.6742,3.6821,3.6869,3.6917,3.6989,3.7027,3.7047,3.7065,3.7086,3.7093,3.7087,3.7092,3.7114,3.7109,3.7105,3.7162,3.7162,3.7162,0,0,3.6295,3.6352,3.6382,3.6434,3.6513,3.6569,3.6576,3.6668,3.6703,3.6753,3.6813,3.6852,3.6935,3.6985,3.7021,3.7004,3.7047,3.7017,3.6984,3.7003,3.6999,3.6996,3.6991,3.6988,3.7018,3.7017,3.7017,0,3.6246,3.6317,3.6391,3.6432,3.6471,3.6546,3.6576,3.6622,3.6713,3.6737,3.6756,3.6863,3.6917,3.6968,3.6964,3.699,3.7,3.7009,3.6994,3.6991,3.6989,3.6986,3.6984,3.7014,3.7014,3.7014,3.7015,0,3.6253,3.63,3.6314,3.6403,3.6443,3.6478,3.6556,3.6587,3.6631,3.6684,3.6733,3.68,3.6866,3.6881,3.6924,3.6939,3.6948,3.6978,3.7012,3.6979,3.6978,3.6977,3.7008,3.7009,3.701,3.7011,0,0,3.6167,3.6297,3.6301,3.6342,3.6435,3.6472,3.6509,3.6576,3.6602,3.666,3.6694,3.6763,3.6792,3.6833,3.6881,3.6897,3.6881,3.6927,3.6929,3.6917,3.6903,3.6881,3.6878,3.6909,3.6909,3.6909,3.6897,0,3.6149,3.6224,3.6291,3.634,3.6385,3.6455,3.6488,3.6547,3.6597,3.664,3.6694,3.6743,3.6777,3.6802,3.6821,3.6879,3.688,3.688,3.6941,3.6942,3.6924,3.6877,3.6854,3.684,3.6897,3.6897,3.6897,0,3.6138,3.6197,3.6251,3.634,3.6361,3.639,3.6456,3.6497,3.6565,3.66,3.6645,3.6696,3.6737,3.6763,3.6821,3.682,3.6848,3.6879,3.688,3.6891,3.6919,3.6888,3.6837,3.6835,3.6896,3.6896,3.6896,0,3.6073,3.6165,3.621,3.6243,3.6347,3.6365,3.6409,3.6478,3.6513,3.657,3.6594,3.6653,3.6686,3.673,3.6795,3.6808,3.6846,3.6878,3.6876,3.6875,3.6883,3.6882,3.6838,3.6897,3.6897,3.6897,3.6897,0,3.6047,3.6078,3.6183,3.621,3.6246,3.6322,3.6354,3.6404,3.6464,3.6502,3.6564,3.6597,3.668,3.6722,3.6773,3.6813,3.6827,3.6856,3.6869,3.6852,3.6848,3.6873,3.6877,3.6896,3.6897,3.6897,3.6897,0,3.5982,3.6053,3.6107,3.6201,3.6225,3.6247,3.6327,3.6356,3.6408,3.6455,3.647,3.6552,3.6605,3.6674,3.6747,3.6781,3.6816,3.6836,3.6795,3.6803,3.6798,3.6799,3.677,3.6771,3.6827,3.6826,3.6825,0,3.5963,3.5988,3.6085,3.6116,3.6158,3.6206,3.6243,3.6317,3.6353,3.6432,3.645,3.6508,3.656,3.6641,3.6706,3.6762,3.6785,3.6771,3.6794,3.6776,3.6787,3.6786,3.6789,3.6766,3.6765,3.6764,3.6764,0,3.592,3.5954,3.6007,3.6071,3.6114,3.6167,3.6223,3.6244,3.6329,3.6366,3.6422,3.6462,3.6538,3.6595,3.666,3.6703,3.6747,3.6755,3.6759,3.6742,3.6718,3.6733,3.6781,3.6756,3.6757,3.6758,3.6758,3.6758,3.5879,3.5906,3.5978,3.6034,3.6084,3.6135,3.6167,3.6224,3.6273,3.6343,3.6382,3.6437,3.6503,3.6595,3.6636,3.6679,3.6696,3.67,3.6701,3.6701,3.6697,3.6709,3.669,3.6691,3.6691,3.6691,3.6692,0,3.5842,3.5892,3.5943,3.602,3.6064,3.6102,3.6166,3.62,3.6248,3.6306,3.6356,3.642,3.6475,3.6544,3.6604,3.6624,3.6646,3.6638,3.6638,3.6647,3.6677,3.667,3.6619,3.6619,3.6619,3.6619,3.6619,3.6619,3.5828,3.5876,3.5917,3.5989,3.6039,3.6095,3.6128,3.6175,3.6222,3.6292,3.6339,3.6384,3.6446,3.6511,3.6563,3.6581,3.6601,3.6587,3.6611,3.6639,3.6645,3.6651,3.6645,3.659,3.659,3.6579,3.6578,3.6578]}]]